STARLINK-2658, 48473

Orbit data source: Space-Track

STARLINK-2658, 48473 is a payload satellite owned by SpaceX/Seattle (US) in LEO that was launched on Sun, 09 May 2021 UTC via an FALCON 9 launch vehicle from the Air Force Eastern Test Range (AFETR). Payload-class satellites include a variety of spacecraft equipped with specific instruments for various scientific and technological missions. These include communications satellites like Starlink; space stations such as the ISS; scientific satellites like the Hubble; Earth observation satellites from companies like Planet Labs, Umbra, and HawkEye 360; GPS; miniature CubeSats for education and research; and military/defense satellites.

Loading next visibility...
Identifier
48473, 2021-040AX
Orbit
LEO
Country
Flag of USUS
Related business
Manufacturer
SpaceX/Seattle
Mission
Operational Commercial Communications
Bus & Motor
STARLINK, Unknown motor
Mass
260 kg wet, ~248 kg dry
Launch date (UTC)
2021-05-09 (5 years ago)
Launch vehicle
FALCON 9
Launch site
Air Force Eastern Test Range (AFETR)
Object type
Payload
Rocket body
Debris
Shape & HBR
Box + 1 Pan, 10.1 m
Radar Cross Section
13.562 m², Large (>1 m²)

Expand to show TLE details & history
Last TLE update: 2 days ago

TLE from 2 days ago
0 STARLINK-2658
1 48473U 21040AX  26170.94586806  .00005283  00000-0  18179-3 0  9992
2 48473  53.1584  75.2868 0001520 123.5910 236.5237 15.31715032282164
Epoch: 2026-06-19T22:42Z
TLE epoch observation values (Epoch: 2026-06-19T22:42:03.000Z)
Latitude
0.00001°
Longitude
-173.39325°
Altitude
472.17 km
Speed
7.631 km/s
True Right ascension
05h 01m 08s
True Declination
0° 00' 00"
Sunlit
Object was in daylight at epoch
Visualization orbit readout
Latitude
Unknown
Longitude
Unknown
Altitude
Unknown
Speed
Unknown
Apparent Right ascension
Unknown
Apparent Declination
Unknown
Sunlit
N/A
Visualization observer readout
Local Sidereal Time
21:30:26
Azimuth
Unknown
Elevation
Unknown
Doppler factor
Unknown
Orbital elements
Apogee altitude
471.993 km
Perigee altitude
469.911 km
Semi-major axis
6,849.089 km
Eccentricity
0.00015
Inclination
53.1584°
RAAN
75.2868°
Arg. of periapsis
123.591°
True anomaly
236.50917°
Mean anomaly
236.5237°
Eccentric anomaly
236.51644°
Mean motion
3.82908 °/min
Orbital period
94.02 mins
BSTAR
0.00018179
Loading maneuver chart data...
Computing Atmospheric mass density...

Documentation

Showing up to 5 results
|